Location: N�rnberg
(49.4471°N, 11.0632°E)
Time: 01:44:53
(UTC+01:00)

Tiangong - Pass Details

Date: 17 February 2026
Orbit: 381 x 391 km, 41.5° (Epoch: 7 March)

Event Time Altitude Azimuth Distance (km) Brightness Sun altitude
Rises 19:10:48 0° 254° (WSW) 2,255 3.3 -15.6°
Reaches altitude 10° 19:13:19 10° 233° (SW) 1,399 1.5 -16.0°
Maximum altitude 19:15:30 17° 189° (S) 1,045 0.1 -16.3°
Enters shadow 19:16:36 15° 163° (SSE) 1,147 0.1 -16.5°
